User: anonymous   Login
Location: Newark
(49.4900°N, 20.6656°E)
Time: 04:12:26
(UTC+00:00)
Language:

STARLINK-1738 - Orbit

View from above orbital plane
View from above orbital plane
View from above satellite
View from above satellite

Ground track
Ground track

The orbit data is extracted from the following two-line orbital elements,

1 46336U 20062M   20336.58334491 -.01061404  00000-0 -46266-1 0  9996
2 46336  52.9989 354.7123 0001412  72.3811 135.1730 15.24670875 14753
Epoch (UTC): 01 December 2020 14:00:01
Eccentricity: 0.0001412
inclination: 52.9989°
perigee height: 491 km
apogee height: 493 km
right ascension of ascending node: 354.7123°
argument of perigee: 72.3811°
revolutions per day: 15.24670875
mean anomaly at epoch: 135.1730°
orbit number at epoch: 1475

The dashed part of the orbit path shows where the satellite is in the earth's shadow,  

DLR